Overview Statistics Trail Chart Weather Telemetry Raw packets
 

This is the latest recevied weather packets stored in our database for station/object N6GPM. If no packets are shown the sender has not sent any weather packets the latest 10 day(s).

<< 41 42 43 44 45 46 47 >>
Time Temp. Humidity Pressure Rain* Wind** Luminosity Snow
1788398259 25° C 41% 1017.7 hPa 0 mm - 79 W/m² -
1788397954 25.56° C 40% 1017.8 hPa 0 mm - 90 W/m² -
1788397650 25.56° C 40% 1017.9 hPa 0 mm - 101 W/m² -
1788397350 25.56° C 41% 1017.7 hPa 0 mm - 113 W/m² -
1788397048 26.11° C 41% 1017.8 hPa 0 mm - 125 W/m² -
1788396743 26.11° C 41% 1017.6 hPa 0 mm - 140 W/m² -
1788396439 26.11° C 41% 1017.5 hPa 0 mm - 157 W/m² -
1788396134 26.11° C 41% 1017.7 hPa 0 mm - 179 W/m² -
1788395830 26.67° C 41% 1017.4 hPa 0 mm - 201 W/m² -
1788395525 26.67° C 41% 1017.7 hPa 0 mm - 223 W/m² -
1788395220 26.67° C 40% 1017.6 hPa 0 mm - 242 W/m² -
1788394914 27.22° C 40% 1017.6 hPa 0 mm - 262 W/m² -
1788394609 26.67° C 40% 1017.4 hPa 0 mm - 283 W/m² -
1788394303 27.22° C 39% 1017.7 hPa 0 mm - 302 W/m² -
1788393999 27.78° C 38% 1017.5 hPa 0 mm - 326 W/m² -
1788393698 27.78° C 38% 1017.7 hPa 0 mm - 348 W/m² -
1788393397 28.33° C 37% 1017.5 hPa 0 mm - 370 W/m² -
1788393092 28.33° C 36% 1017.7 hPa 0 mm - 390 W/m² -
1788392786 28.33° C 35% 1017.6 hPa 0 mm - 411 W/m² -
1788392484 28.89° C 35% 1017.7 hPa 0 mm - 432 W/m² -
1788392180 28.89° C 35% 1017.8 hPa 0 mm - 454 W/m² -
1788391874 28.33° C 34% 1017.7 hPa 0 mm - 475 W/m² -
1788391574 28.89° C 34% 1017.8 hPa 0 mm - 495 W/m² -
1788391268 28.89° C 33% 1017.7 hPa 0 mm - 514 W/m² -
1788390968 28.89° C 33% 1017.9 hPa 0 mm - 536 W/m² -

* Rain latest hour (hover to see other rain measurements)
** Current wind speed in m/s (hover to see current wind gust speed)